Terminal Aerodrome Forecast
Issued by NWS

Home | Current Version | Previous Version | Text Only | Print | Product List | Glossary On
Versions: 1 2 3 4 5 6 7 8 9 10 11 12 13 14 15 16 17 18 19 20 21 22 23 24 25 26 27 28 29 30 31 32 33 34 35 36 37 38 39 40 41 42 43 44 45 46
000
FTUS43 KPAH 161131
TAFOWB
TAF
KOWB 161131Z 1612/1712 07004KT 4SM BR OVC006
     FM162100 17009KT 2SM -SHRA BR OVC004
     FM170100 17012KT 3SM -SHRA BR VCTS OVC010CB
      TEMPO 1703/1707 2SM -TSRA BR OVC008CB
     FM171100 22009KT 4SM BR OVC012=

USA.gov is the U.S. government's official web portal to all federal, state and local government web resources and services.